Time,B instrument,Bx,By,Bz,sigma B,Ion instrument,Status,Tp_par,Tp_perp,carrot,r_sun,clat,clong,earth_he_angle,n_p,vp_x,vp_y,vp_z,vth_p_par,vth_p_perp
1980-03-06 00:51:14,-1,nan,nan,nan,nan,1,3,nan,nan,1692,0.97477639,-1.243021,89.193115,280.17749,nan,393.621,-51.1765,-18.3939,nan,nan
1980-03-06 01:02:02,1,-4.4,-1.5,4.4,0.0,1,1,131425.0,102659.0,1692,0.97476274,-1.2436953,89.089355,280.17529,2.42187,398.204,-49.0286,-10.4342,46.5797,41.1676
1980-03-06 01:12:50,1,-4.8,-2.1,4.05,0.229129,1,1,159814.0,91715.4,1692,0.97475028,-1.2443085,88.989746,280.17334,2.4829,398.744,-35.7316,-10.0676,51.3648,38.9116
1980-03-06 01:39:41,1,-5.2,-1.72857,4.24286,0.39123,1,1,138544.0,97009.2,1692,0.9747166,-1.2459621,88.738281,280.16797,2.35522,398.604,-34.8314,-17.8795,47.8246,40.0188
1980-03-06 01:39:43,1,-5.2,-1.72857,4.24286,0.39123,1,1,122983.0,94536.6,1692,0.97472966,-1.1011823,88.655945,280.08563,2.2972,396.339,-31.5158,-16.2841,45.0588,39.5055
1980-03-06 01:41:02,1,-5.3,-1.5,4.5,0.0,1,1,119516.0,99044.9,1692,0.9747141,-1.2460852,88.726074,280.16748,2.46656,400.349,-33.3285,-18.2882,44.4192,40.4365
1980-03-06 01:41:04,1,-5.3,-1.5,4.5,0.0,1,1,116726.0,96726.8,1692,0.9747141,-1.2460852,88.726074,280.16748,2.26685,400.916,-29.4822,-21.264,43.8978,39.9605
1980-03-06 01:42:25,1,-5.64286,-1.27143,4.5,0.23035,1,1,121423.0,111443.0,1692,0.97471285,-1.2461462,88.714111,280.16724,2.50195,405.171,-32.5904,-17.8686,44.7722,42.8927
1980-03-06 01:43:46,1,-5.4125,-1.2,4.65,0.271282,1,1,110197.0,93556.3,1692,0.9747116,-1.2462072,88.702148,280.16699,2.09416,406.642,-31.7237,-20.1861,42.6523,39.3002
1980-03-06 01:45:07,1,-5.22857,-1.18571,4.57143,0.420398,1,1,119985.0,110860.0,1692,0.97470909,-1.2463303,88.686279,280.16675,2.54843,402.261,-33.3012,-20.2841,44.5064,42.7805
1980-03-06 01:46:28,1,-5.2,-0.95,4.475,0.233184,1,1,141221.0,114551.0,1692,0.97470784,-1.2463913,88.674316,280.1665,2.78533,394.81,-38.3615,-19.1053,48.2846,43.4867
1980-03-06 01:47:49,1,-5.04286,-1.51429,4.74286,0.330121,1,1,140735.0,93117.4,1692,0.97470659,-1.2464523,88.662354,280.16626,2.54013,399.475,-32.4394,-20.5676,48.2013,39.2079
1980-03-06 01:49:10,1,-5.2125,-1.25,4.6625,0.354877,1,1,126789.0,112832.0,1692,0.97470415,-1.2465754,88.650391,280.16602,2.43891,402.46,-33.5835,-22.2854,45.7509,43.1592
1980-03-06 01:50:31,1,-5.32857,-1.42857,4.27143,0.330121,1,1,135881.0,118695.0,1692,0.97470289,-1.2466364,88.638428,280.16577,2.57761,398.416,-32.4302,-16.8945,47.3628,44.2664
1980-03-06 01:51:52,1,-5.3,-1.65714,4.32857,0.290671,1,1,150378.0,100221.0,1692,0.97470164,-1.2466974,88.626465,280.16553,2.37706,399.152,-31.2794,-18.1969,49.8252,40.6759
1980-03-06 01:53:13,1,-5.45,-0.6375,4.35,0.331427,1,1,137377.0,100749.0,1692,0.97469914,-1.2468204,88.610352,280.16504,2.53536,404.204,-36.846,-17.3859,47.6228,40.7829
1980-03-06 01:54:34,1,-5.48571,-0.0857143,4.22857,0.28067,1,1,100917.0,124670.0,1692,0.97469789,-1.2468815,88.598389,280.16479,2.4399,400.497,-35.9529,-21.2705,40.8169,45.3668
1980-03-06 01:55:55,1,-5.6,0.0428571,4.31429,0.379043,1,1,122237.0,118883.0,1692,0.97469664,-1.2469425,88.58667,280.16479,2.78372,397.453,-33.7265,-17.6411,44.9221,44.3014
1980-03-06 01:57:16,1,-5.61429,-0.0428571,4.27143,0.563154,1,1,73464.3,104307.0,1692,0.97469413,-1.2470655,88.574463,280.16431,2.03225,401.283,-41.1514,-24.5887,34.8254,41.4969
1980-03-06 01:58:37,1,-5.66667,-0.166667,4.53333,0.408248,1,1,131032.0,126808.0,1692,0.97469288,-1.2471266,88.5625,280.16406,2.44877,403.103,-47.8069,-21.0719,46.5101,45.7543
1980-03-06 01:59:58,1,-5.37143,0.642857,4.17143,0.252336,1,1,106921.0,124526.0,1692,0.97469163,-1.2471876,88.550537,280.16382,2.68345,394.092,-49.2759,-20.1185,42.0135,45.3406
1980-03-06 02:01:19,-1,nan,nan,nan,nan,1,4,nan,nan,1692,0.97468919,-1.2473106,88.538574,280.16357,nan,nan,nan,nan,nan,nan
1980-03-06 02:02:40,1,-4.98333,0.533333,4.2,0.305959,1,1,113599.0,111065.0,1692,0.97468793,-1.2473717,88.522705,280.16333,2.52582,394.549,-38.3553,-16.2833,43.3057,42.82
1980-03-06 02:04:01,1,-4.95714,0.342857,4.11429,0.321349,1,1,153350.0,124426.0,1692,0.97468543,-1.2474947,88.510498,280.16284,2.95795,396.606,-38.2861,-18.2491,50.3153,45.3224
1980-03-06 02:05:22,1,-4.94286,0.257143,4.45714,0.30034,1,1,141441.0,115969.0,1692,0.97468418,-1.2475557,88.498535,280.1626,2.62619,401.269,-41.1686,-17.114,48.322,43.7551
1980-03-06 02:06:43,1,-4.85,0.525,4.0875,0.30898,1,1,105889.0,102382.0,1692,0.97468293,-1.2476168,88.486816,280.1626,2.54258,400.231,-40.4588,-19.8643,41.8103,41.1122
1980-03-06 02:08:04,1,-4.98571,0.385714,4.11429,0.312984,1,1,105568.0,131327.0,1692,0.97468042,-1.2477398,88.474609,280.16211,2.71328,403.655,-36.55,-16.2175,41.7468,46.5623
1980-03-06 02:09:25,1,-5.21429,-0.2,4.05714,0.330738,1,1,106451.0,106983.0,1692,0.97467917,-1.2478008,88.462646,280.16187,2.49802,402.102,-37.2558,-22.601,41.9211,42.0258
1980-03-06 02:10:46,1,-5.0,-1.27143,4.24286,0.285714,1,1,99374.7,120451.0,1692,0.97467792,-1.2478619,88.446777,280.16162,2.62517,400.481,-34.4932,-16.1509,40.5038,44.5926
1980-03-06 02:12:07,1,-4.68571,-1.3,4.51429,0.345821,1,1,126139.0,111958.0,1692,0.97467542,-1.2479849,88.434814,280.16138,2.90535,398.864,-33.1342,-21.0578,45.6333,42.9919
1980-03-06 02:13:28,1,-4.2125,-2.5625,4.25,0.340496,1,1,104453.0,98300.7,1692,0.97467417,-1.2480459,88.422852,280.16113,2.54854,396.676,-26.7775,-16.1651,41.5259,40.2843
1980-03-06 02:14:49,1,-4.65714,-2.48571,4.25714,0.26264,1,1,111911.0,106594.0,1692,0.97467291,-1.248107,88.410889,280.16089,2.86947,392.743,-27.5777,-17.0922,42.9828,41.9492
1980-03-06 02:16:10,1,-4.52857,-2.35714,4.28571,0.256348,1,1,118488.0,114837.0,1692,0.97467041,-1.24823,88.398682,280.1604,2.92327,396.698,-25.5655,-17.3251,44.2278,43.541
1980-03-06 02:17:31,1,-4.94286,-2.42857,4.21429,0.30706,1,1,104129.0,100328.0,1692,0.97466916,-1.248291,88.386719,280.16016,2.60937,394.121,-21.903,-16.3234,41.4614,40.6976
1980-03-06 02:18:52,1,-5.32857,-0.8,3.74286,0.402036,1,1,100532.0,104401.0,1692,0.97466791,-1.2483521,88.371094,280.16016,2.60865,400.019,-32.1529,-16.3546,40.739,41.5155
1980-03-06 02:20:13,1,-5.3125,-1.3875,3.8875,0.301299,1,1,95702.0,115866.0,1692,0.9746654,-1.2484751,88.358887,280.15967,2.46625,397.423,-32.5545,-15.1078,39.7483,43.7357
1980-03-06 02:21:34,1,-5.12857,-1.38571,3.98571,0.217594,1,1,104285.0,108036.0,1692,0.97466415,-1.2485361,88.346924,280.15942,2.38372,395.415,-34.0689,-15.471,41.4924,42.2321
1980-03-06 02:22:55,1,-5.15714,-0.314286,4.17143,0.370328,1,1,112552.0,112562.0,1692,0.9746629,-1.2485971,88.334961,280.15918,2.69305,399.881,-31.8877,-14.2154,43.1057,43.1077
1980-03-06 02:23:59,-1,nan,nan,nan,nan,1,4,nan,nan,1692,0.97466165,-1.2486582,88.322998,280.15894,nan,nan,nan,nan,nan,nan
1980-03-06 02:24:16,1,-4.96667,0.0166667,3.93333,0.25,1,1,115865.0,123110.0,1692,0.9746604,-1.2487202,88.322998,280.15894,2.72749,397.702,-30.5341,-12.8088,43.7355,45.0822
1980-03-06 02:25:37,1,-5.35714,0.0142857,3.6,0.359705,1,1,101984.0,106191.0,1692,0.97465914,-1.2487812,88.311035,280.15869,2.64701,402.828,-26.9412,-14.601,41.032,41.8698
1980-03-06 02:26:58,1,-4.88571,0.885714,4.12857,0.30034,1,1,93379.4,113188.0,1692,0.97465789,-1.2488422,88.295166,280.15845,2.76702,401.937,-29.2859,-11.9612,39.263,43.2272
1980-03-06 02:28:19,-1,nan,nan,nan,nan,1,4,nan,nan,1692,0.97465539,-1.2489653,88.282959,280.15796,nan,nan,nan,nan,nan,nan
1980-03-06 02:29:40,1,-5.3,1.07143,3.6,0.231234,1,1,92489.7,111897.0,1692,0.97465414,-1.2490263,88.270996,280.15771,2.83878,404.449,-29.8,-14.2656,39.0755,42.9801
1980-03-06 02:31:01,1,-5.31429,1.0,3.65714,0.294161,1,1,96585.9,94476.3,1692,0.97465163,-1.2491484,88.259033,280.15747,2.47971,404.79,-27.4332,-21.2519,39.9314,39.4929
1980-03-06 03:07:11,-1,nan,nan,nan,nan,1,3,nan,nan,1692,0.97460657,-1.2513542,87.919678,280.15015,nan,406.428,-33.871,-16.9289,nan,nan
1980-03-06 03:17:59,-1,nan,nan,nan,nan,1,3,nan,nan,1692,0.974594,-1.2519674,87.820068,280.14819,nan,408.932,-16.0032,-13.4784,nan,nan
1980-03-06 03:28:47,-1,nan,nan,nan,nan,1,3,nan,nan,1692,0.97458023,-1.2526417,87.720215,280.146,nan,394.668,-25.2846,-15.124,nan,nan
1980-03-06 03:39:35,-1,nan,nan,nan,nan,1,3,nan,nan,1692,0.9745664,-1.253315,87.616455,280.1438,nan,402.089,-15.5893,-10.049,nan,nan
1980-03-06 03:50:23,-1,nan,nan,nan,nan,1,3,nan,nan,1692,0.97455257,-1.2539892,87.516602,280.1416,nan,403.278,-17.8156,-6.71391,nan,nan
1980-03-06 04:01:11,-1,nan,nan,nan,nan,1,3,nan,nan,1692,0.97453874,-1.2546635,87.416748,280.1394,nan,402.7,-18.166,-6.90515,nan,nan
1980-03-06 04:11:59,-1,nan,nan,nan,nan,1,3,nan,nan,1692,0.97452617,-1.2552757,87.313232,280.13745,nan,397.17,-20.6698,-6.73288,nan,nan
1980-03-06 04:22:47,-1,nan,nan,nan,nan,1,3,nan,nan,1692,0.97451228,-1.25595,87.213379,280.13525,nan,403.291,-28.0971,3.15793,nan,nan
1980-03-06 04:33:35,-1,nan,nan,nan,nan,1,3,nan,nan,1692,0.97449845,-1.2566242,87.113525,280.13306,nan,399.04,-31.5869,4.33308,nan,nan
1980-03-06 04:44:23,-1,nan,nan,nan,nan,1,3,nan,nan,1692,0.97448456,-1.2572985,87.009766,280.13086,nan,404.101,-24.7453,3.95592,nan,nan
1980-03-06 04:55:11,-1,nan,nan,nan,nan,1,3,nan,nan,1692,0.97447067,-1.2579727,86.909912,280.12866,nan,400.578,-27.0312,-6.53727,nan,nan
1980-03-06 05:05:59,-1,nan,nan,nan,nan,1,3,nan,nan,1692,0.97445804,-1.2585859,86.810059,280.12646,nan,401.137,-25.8328,-2.13572,nan,nan
1980-03-06 05:16:47,-1,nan,nan,nan,nan,1,3,nan,nan,1692,0.97444415,-1.2592602,86.706299,280.12427,nan,394.015,-21.3198,-6.4718,nan,nan
1980-03-06 05:27:35,-1,nan,nan,nan,nan,1,3,nan,nan,1692,0.9744302,-1.2599344,86.606689,280.12231,nan,396.887,-23.7459,-6.9511,nan,nan
1980-03-06 05:49:11,-1,nan,nan,nan,nan,1,3,nan,nan,1692,0.97440237,-1.2612829,86.406982,280.11792,nan,445.798,-55.2452,-5.74195,nan,nan
1980-03-06 05:59:59,-1,nan,nan,nan,nan,1,3,nan,nan,1692,0.97438973,-1.2618952,86.303223,280.11572,nan,396.466,-23.4198,-1.10017,nan,nan
1980-03-06 06:10:47,-1,nan,nan,nan,nan,1,3,nan,nan,1692,0.97437578,-1.2625694,86.203369,280.11353,nan,399.101,-26.1436,-8.96788,nan,nan
1980-03-06 06:21:35,-1,nan,nan,nan,nan,1,3,nan,nan,1692,0.97436178,-1.2632437,86.103516,280.11133,nan,394.034,-22.1423,-5.29754,nan,nan
1980-03-06 06:32:23,-1,nan,nan,nan,nan,1,3,nan,nan,1692,0.97434783,-1.2639179,85.999756,280.10913,nan,391.281,-1.16424,0.803295,nan,nan
1980-03-06 06:43:11,-1,nan,nan,nan,nan,1,3,nan,nan,1692,0.97433388,-1.2645922,85.899902,280.10693,nan,392.03,-12.8244,4.06118,nan,nan
1980-03-06 06:53:59,-1,nan,nan,nan,nan,1,3,nan,nan,1692,0.97432119,-1.2652054,85.800293,280.10498,nan,393.52,-16.7141,7.36415,nan,nan
1980-03-06 07:39:53,1,-4.4875,1.7625,6.3,0.266341,1,1,33076.1,16443.7,1692,0.9742626,-1.2680254,85.369141,280.0957,7.70088,418.498,-29.4958,5.56197,23.3676,16.4762
1980-03-06 07:41:14,1,-4.74286,1.94286,6.07143,0.339868,1,1,18927.4,32038.1,1692,0.97426003,-1.2681475,85.356934,280.09521,4.30775,424.48,-25.9074,2.43062,17.6768,22.9981
1980-03-06 07:43:49,1,-4.94286,2.08571,6.2,0.351672,1,1,12247.9,25857.3,1692,0.97425747,-1.2682705,85.333252,280.09497,5.49584,419.079,-30.6944,8.63473,14.2196,20.6609
1980-03-06 07:45:10,1,-4.9125,1.425,6.225,0.936666,1,1,25656.9,28910.4,1692,0.97425491,-1.2683926,85.321045,280.09448,4.55509,418.8,-40.2564,8.61632,20.5807,21.8466
1980-03-06 07:46:31,1,-5.0,3.525,5.05,0.303109,1,1,15071.6,18326.3,1692,0.97425365,-1.2684546,85.309082,280.09424,9.02737,417.125,-30.5037,14.793,15.7738,17.3939
1980-03-06 07:47:52,1,-4.925,1.575,6.25,0.32596,1,1,18186.8,30675.3,1692,0.9742524,-1.2685156,85.293213,280.09399,4.79535,423.362,-29.1344,7.246,17.3275,22.5036
1980-03-06 07:49:13,1,-5.13333,2.05556,5.71111,0.328483,1,1,14349.6,19731.7,1692,0.97424984,-1.2686377,85.28125,280.09375,6.6828,420.07,-28.7301,10.3073,15.3914,18.0485
1980-03-06 07:50:34,1,-5.225,2.05,5.6,0.277263,1,1,18764.3,29233.5,1692,0.97424853,-1.2686996,85.269287,280.09351,3.78313,415.492,-25.1431,8.18145,17.6004,21.9684
1980-03-06 07:51:55,1,-5.275,2.45,5.675,0.306186,1,1,9899.34,20788.5,1692,0.97424728,-1.2687607,85.257324,280.09326,6.07041,418.627,-27.6037,12.0964,12.7838,18.5255
1980-03-06 07:53:16,1,-5.525,2.425,5.175,0.143614,1,1,21008.2,30001.8,1692,0.97424471,-1.2688837,85.245117,280.09277,3.78439,417.615,-28.8647,7.71181,18.6231,22.2552
1980-03-06 07:54:37,1,-5.42857,2.57143,5.12857,0.245781,1,1,15643.1,17000.5,1692,0.97424346,-1.2689447,85.233398,280.09277,7.58831,419.289,-30.7346,11.4531,16.0701,16.7528
1980-03-06 07:55:58,1,-5.3,2.62857,4.52857,0.30439,1,1,14660.4,22736.2,1692,0.97424215,-1.2690058,85.217529,280.09253,4.79961,419.927,-20.0793,5.97076,15.5572,19.3739
1980-03-06 07:57:19,1,-5.55,3.1625,3.95,0.353332,1,1,15869.7,20072.6,1692,0.97423965,-1.2691288,85.205322,280.09204,6.03546,418.46,-27.5338,5.62946,16.1861,18.2037
1980-03-06 07:58:40,1,-5.2,3.6625,3.3,0.346185,1,1,13909.1,24580.2,1692,0.97423834,-1.2691898,85.193359,280.0918,4.45973,415.977,-19.4363,3.14211,15.1533,20.1442
1980-03-06 08:00:01,1,-4.7375,2.975,4.1,0.318934,1,1,14501.5,25045.2,1692,0.97423583,-1.2693129,85.181396,280.09155,6.35744,414.169,-25.2446,8.12639,15.4726,20.3339
1980-03-06 08:01:22,1,-4.6125,3.75,3.25,0.257087,1,1,21655.4,21334.6,1692,0.97423452,-1.2693739,85.169434,280.09131,6.13616,416.108,-13.2298,2.08947,18.9078,18.7672
1980-03-06 08:02:43,1,-4.62857,4.17143,2.77143,0.374711,1,1,22555.3,22616.4,1692,0.97423327,-1.2694349,85.157471,280.09106,4.56456,418.827,-19.4045,2.93383,19.2967,19.3228
1980-03-06 08:04:04,1,-4.6,4.14286,2.82857,0.270298,1,1,24299.9,23065.8,1692,0.97423071,-1.269558,85.141357,280.09058,5.17821,421.706,-14.024,1.92497,20.029,19.5138
1980-03-06 08:05:25,1,-5.07143,4.27143,2.38571,0.311022,1,1,27843.3,31376.9,1692,0.9742294,-1.269619,85.129395,280.09033,2.54422,416.181,-23.1951,10.6759,21.4397,22.7595
1980-03-06 08:06:46,1,-4.8,4.15,2.6,0.331662,1,1,38151.9,34347.3,1692,0.97422814,-1.26968,85.117676,280.09033,2.24302,409.217,-21.566,24.0943,25.0967,23.8124
1980-03-06 08:08:07,1,-4.8,4.05,2.3,0.327872,1,1,39787.8,38198.1,1692,0.97422558,-1.269803,85.105469,280.08984,2.76429,417.104,-24.2604,14.6724,25.6291,25.1119
1980-03-06 08:09:28,1,-4.8,4.375,0.6125,0.527227,1,1,50037.1,77409.1,1692,0.97422427,-1.2698641,85.093506,280.0896,2.3945,417.595,-6.7675,-9.31765,28.7411,35.7482
1980-03-06 08:10:49,1,-4.225,4.7,0.725,0.410792,1,1,38404.1,50605.3,1692,0.97422302,-1.2699251,85.081543,280.08936,1.90227,418.191,-11.9052,4.11721,25.1795,28.9039
1980-03-06 08:12:10,1,-4.1,4.5625,1.675,1.02675,1,1,39593.6,68609.8,1692,0.97422045,-1.2700481,85.065674,280.08911,2.22533,424.091,-10.9658,-1.45206,25.5664,33.6551
1980-03-06 08:13:31,1,-2.6375,3.725,-2.6875,0.332133,1,1,81753.5,38834.2,1692,0.97421914,-1.2701092,85.053711,280.08887,2.11215,443.816,-19.4845,-29.1811,36.7376,25.3201
1980-03-06 08:14:52,1,-2.05,3.05,-2.9,0.41833,1,1,73750.8,89299.1,1692,0.97421789,-1.2701702,85.041748,280.08862,2.3726,444.679,-31.0777,-40.956,34.8932,38.3956
1980-03-06 08:16:13,1,-1.55,2.85,-3.05,0.25,1,1,98116.1,115806.0,1692,0.97421533,-1.2702932,85.029541,280.08813,2.77315,449.77,-32.4592,-34.0993,40.2465,43.7244
1980-03-06 08:18:55,1,0.7,-0.75,-3.35,0.463681,1,1,169418.0,114485.0,1692,0.97421277,-1.2704153,85.005859,280.08789,3.13615,472.818,-68.9176,-23.8255,52.8856,43.4742
1980-03-06 08:20:16,1,-0.0111111,0.333333,-2.85556,0.528216,1,1,152825.0,179826.0,1692,0.9742102,-1.2705383,84.989746,280.0874,3.42384,459.119,-55.9501,-22.3288,50.2291,54.4858
1980-03-06 08:21:37,1,1.6875,-1.2125,-3.4,0.569814,1,1,94754.8,116972.0,1692,0.97420895,-1.2705994,84.977783,280.08716,2.91262,467.834,-57.347,-26.5957,39.5511,43.9439
1980-03-06 08:22:58,1,2.18889,-2.05556,-4.5,0.281091,1,1,45970.5,78007.3,1692,0.97420764,-1.2706604,84.966064,280.08716,2.43662,466.581,-61.8917,-29.7419,27.5485,35.886
1980-03-06 08:24:19,1,2.1375,-1.5875,-4.55,0.566513,1,1,47353.6,87054.4,1692,0.97420508,-1.2707834,84.953857,280.08667,2.71851,464.733,-59.1515,-32.0708,27.9598,37.91
1980-03-06 08:25:40,1,1.63333,-1.43333,-4.63333,0.258199,1,1,44694.1,70155.8,1692,0.97420382,-1.2708445,84.941895,280.08643,2.66329,468.268,-58.994,-29.1591,27.1633,34.0322
1980-03-06 08:27:01,1,2.2125,-1.6,-4.45,0.453975,1,1,48424.3,70665.6,1692,0.97420126,-1.2709675,84.929932,280.08618,2.66908,466.668,-60.7694,-33.1345,28.2741,34.1556
1980-03-06 08:28:22,1,2.57778,-1.46667,-4.25556,0.673117,1,1,45089.5,62288.3,1692,0.97419995,-1.2710285,84.914063,280.08594,2.23671,464.038,-58.8117,-23.3201,27.2832,32.0672
1980-03-06 08:29:43,1,0.8,0.555556,-4.01111,0.387458,1,1,152915.0,107166.0,1692,0.9741987,-1.2710896,84.9021,280.08569,3.63026,473.228,-62.4057,-31.2472,50.2438,42.0616
1980-03-06 08:31:04,1,0.877778,0.166667,-4.01111,0.347122,1,1,176854.0,110180.0,1692,0.97419614,-1.2712126,84.889893,280.08521,3.91746,469.855,-57.811,-20.5887,54.0338,42.649
1980-03-06 08:32:25,1,0.177778,1.3,-3.37778,0.650736,1,1,68830.1,43073.0,1692,0.97419488,-1.2712736,84.87793,280.08496,3.7174,465.84,-42.8161,-10.0882,33.7091,26.6662
1980-03-06 08:33:46,1,-0.35,0.525,-3.9,0.537936,1,1,135827.0,76817.3,1692,0.97419357,-1.2713346,84.866211,280.08496,4.86235,463.964,-66.2647,-14.2742,47.3534,35.6113
1980-03-06 08:35:07,1,-1.06667,0.433333,-3.97778,0.229868,1,1,145654.0,86835.5,1692,0.97419101,-1.2714577,84.854004,280.08447,4.7597,458.09,-63.2521,-3.16171,49.0365,37.8623
1980-03-06 08:36:28,1,-1.7875,0.125,-4.1,0.320887,1,1,112033.0,82535.2,1692,0.97418976,-1.2715187,84.838135,280.08423,4.1588,455.146,-63.785,-13.1885,43.0061,36.9128
1980-03-06 08:37:49,1,0.377778,2.27778,-3.66667,0.387458,1,1,86542.7,99184.3,1692,0.97418845,-1.2715797,84.826172,280.08398,4.45905,467.468,-53.2098,-32.7488,37.7984,40.465
1980-03-06 08:39:10,1,-0.0222222,0.144444,-3.54444,0.977525,1,1,120408.0,68706.8,1692,0.97418588,-1.2717028,84.814209,280.08374,5.62295,469.052,-75.0712,-20.3013,44.5847,33.6789
1980-03-06 08:40:31,1,0.5,3.86667,-1.57778,0.576922,1,1,56640.4,77306.5,1692,0.97418463,-1.2717638,84.802246,280.0835,5.14023,473.436,-38.2819,-13.917,30.5788,35.7245
1980-03-06 08:41:52,1,-0.333333,3.42222,-2.33333,0.345697,1,1,54436.0,67911.6,1692,0.97418332,-1.2718248,84.790283,280.08325,4.63793,465.049,-47.6374,-18.9973,29.9779,33.4834
1980-03-06 08:43:13,1,-1.27778,3.92222,-1.45556,0.351715,1,1,54154.4,74592.0,1692,0.97418076,-1.2719479,84.778076,280.08276,4.45894,456.861,-37.993,-18.2812,29.9002,35.0917
1980-03-06 08:44:34,1,-1.35,3.375,-2.0375,0.221853,1,1,79362.5,95296.3,1692,0.97417951,-1.2720089,84.766357,280.08276,5.22398,458.771,-37.5463,-18.6889,36.1964,39.664
1980-03-06 08:45:55,1,-0.688889,2.81111,-2.72222,0.470618,1,1,67603.6,91719.5,1692,0.97417825,-1.2720709,84.750488,280.08252,4.87242,460.237,-44.2041,-26.5063,33.4074,38.9125
1980-03-06 08:47:16,1,-2.4375,3.95,-0.1,0.331427,1,1,24467.8,52805.6,1692,0.97417569,-1.272193,84.738281,280.08203,3.7683,452.94,-45.5357,-10.0494,20.0981,29.5255
1980-03-06 08:48:37,1,-2.475,3.775,0.025,0.143614,1,1,24525.2,48874.2,1692,0.97417438,-1.272254,84.726318,280.08179,5.20268,454.264,-38.5674,-8.96428,20.1217,28.4052
1980-03-06 08:49:58,1,-2.4875,3.7625,0.1875,0.263688,1,1,22688.1,56411.0,1692,0.97417313,-1.272316,84.7146,280.08179,4.40005,450.826,-43.1759,-6.99212,19.3534,30.5169
1980-03-06 08:51:19,1,-2.3875,3.45,0.4,0.266634,1,1,27195.1,49857.0,1692,0.97417057,-1.272438,84.702393,280.0813,5.53191,450.797,-38.7023,-10.7658,21.1886,28.6894
1980-03-06 08:52:40,1,-2.425,3.4625,0.4625,0.253106,1,1,29058.8,63872.3,1692,0.97416925,-1.2724991,84.69043,280.08105,4.63017,452.529,-42.9436,-5.97983,21.9027,32.4724
1980-03-06 08:54:01,1,-2.62222,3.53333,0.0777778,0.300206,1,1,30322.8,22186.9,1692,0.97416669,-1.2726221,84.674316,280.08057,6.67988,442.811,-37.7462,-10.483,22.3739,19.1384
1980-03-06 08:55:22,1,-2.6,3.675,0.375,0.407738,1,1,22699.3,52450.8,1692,0.97416544,-1.2726831,84.662598,280.08057,4.77154,450.44,-44.6623,-5.01026,19.3582,29.4262
1980-03-06 08:56:43,1,-2.5375,3.475,0.6875,0.381199,1,1,31758.6,22220.9,1692,0.97416413,-1.2727442,84.650635,280.08032,6.0099,443.782,-39.3655,-8.57129,22.8975,19.1531
1980-03-06 08:58:04,1,-2.825,3.4,-0.1,0.454835,1,1,36067.2,69864.3,1692,0.97416157,-1.2728672,84.638428,280.07983,4.34271,451.749,-47.1139,-13.2258,24.4013,33.9614
1980-03-06 08:59:25,1,-2.76667,3.45556,0.1,0.291018,1,1,41804.6,23626.2,1692,0.97416031,-1.2729282,84.626465,280.07959,5.04351,445.531,-40.278,-12.4187,26.2706,19.7495
1980-03-06 09:00:46,1,-3.075,3.45,0.3,0.248747,1,1,31482.2,63948.0,1692,0.97415906,-1.2729902,84.614746,280.07959,4.63333,454.357,-46.5509,-6.82007,22.7977,32.4916
1980-03-06 09:02:07,1,-2.875,3.6,0.7,0.286138,1,1,36939.8,22534.9,1692,0.97415644,-1.2731123,84.598633,280.0791,5.0659,445.747,-40.9885,-10.9047,24.6948,19.2879
1980-03-06 09:03:28,1,-2.9375,3.575,0.45,0.318934,1,1,30390.6,51410.9,1692,0.97415519,-1.2731733,84.58667,280.07886,4.35816,452.786,-48.6017,-8.56927,22.3989,29.133
1980-03-06 09:04:49,1,-2.9,3.5125,1.0,0.271282,1,1,38391.9,24917.3,1692,0.97415388,-1.2732353,84.574707,280.07861,5.50062,443.231,-38.1765,-14.6956,25.1755,20.2819
1980-03-06 09:06:10,1,-3.0,3.5125,1.35,0.136359,1,1,30660.5,63482.6,1692,0.97415131,-1.2733574,84.562744,280.07837,4.10526,454.348,-45.1836,-19.5188,22.4982,32.3732
1980-03-06 09:07:31,1,-3.34444,3.57778,1.83333,0.553552,1,1,36324.0,22964.1,1692,0.97415006,-1.2734194,84.550781,280.07813,5.33831,442.844,-37.0901,-18.0354,24.4881,19.4707
1980-03-06 09:08:52,1,-3.025,3.75,0.9,0.330719,1,1,52286.8,87851.7,1692,0.97414875,-1.2734804,84.538818,280.07788,4.58438,451.693,-39.9876,-11.0817,29.3802,38.0832
1980-03-06 09:10:13,1,-3.2,3.6625,1.1125,0.40117,1,1,30046.4,21801.8,1692,0.97414619,-1.2736025,84.522705,280.07739,5.8968,441.951,-36.6692,-14.3653,22.2718,18.9716
1980-03-06 09:11:34,1,-3.6,3.425,1.475,0.431567,1,1,102876.0,83897.0,1692,0.97414494,-1.2736645,84.510986,280.07739,5.24126,456.325,-32.4105,-15.6577,41.2111,37.2161
1980-03-06 09:12:55,1,-3.6,3.25,2.0875,0.340725,1,1,29265.7,24129.6,1692,0.97414362,-1.2737255,84.499023,280.07715,5.56805,443.05,-35.1333,-16.9447,21.9805,19.9587
1980-03-06 09:14:16,1,-2.9,3.7125,0.15,0.305931,1,1,41318.1,58185.7,1692,0.97414106,-1.2738476,84.486816,280.07666,4.14901,444.287,-42.5264,-1.22417,26.1173,30.9932
1980-03-06 09:15:37,1,-2.925,3.6375,0.25,0.31499,1,1,26857.1,19189.1,1692,0.97413981,-1.2739096,84.474854,280.07642,6.62857,441.662,-37.2813,-11.086,21.0566,17.7986
1980-03-06 09:16:58,1,-2.9375,3.475,1.7,0.440703,1,1,38034.1,79092.4,1692,0.9741385,-1.2739706,84.462891,280.07617,4.38162,452.54,-40.9504,-9.50196,25.0579,36.1348
1980-03-06 09:18:19,1,-2.9,3.25,0.9,0.327872,1,1,27083.8,20500.0,1692,0.97413594,-1.2740936,84.447021,280.07593,6.75109,442.822,-38.0163,-8.72063,21.1453,18.3965
1980-03-06 09:19:40,1,-2.9,3.35,0.5,0.295804,1,1,28955.7,57380.0,1692,0.97413462,-1.2741547,84.435059,280.07568,4.47258,449.617,-43.1651,-6.38869,21.8638,30.7778
1980-03-06 10:31:38,-1,nan,nan,nan,nan,1,3,nan,nan,1692,0.97404206,-1.2785683,83.764404,280.06128,nan,422.451,-15.925,-11.1383,nan,nan
1980-03-06 10:32:59,1,-4.08571,2.61429,1.34286,0.254751,1,1,122274.0,89425.8,1692,0.97404081,-1.2786303,83.748535,280.06104,2.92305,422.209,-17.4067,-6.22259,44.9289,38.4228
1980-03-06 10:34:20,-1,nan,nan,nan,nan,1,4,nan,nan,1692,0.97403824,-1.2787523,83.736572,280.06079,nan,nan,nan,nan,nan,nan
1980-03-06 10:35:41,1,-3.8875,2.6,0.95,0.329536,1,1,127182.0,89354.6,1692,0.97403693,-1.2788134,83.724609,280.06055,3.11955,430.898,-18.7686,-7.54035,45.8216,38.4075
1980-03-06 10:37:04,-1,nan,nan,nan,nan,1,4,nan,nan,1692,0.97403437,-1.2789364,83.712402,280.06006,nan,nan,nan,nan,nan,nan
1980-03-06 10:38:25,-1,nan,nan,nan,nan,1,4,nan,nan,1692,0.97403306,-1.2789974,83.700684,280.06006,nan,nan,nan,nan,nan,nan
1980-03-06 10:39:46,-1,nan,nan,nan,nan,1,4,nan,nan,1692,0.97403175,-1.2790594,83.688721,280.05981,nan,nan,nan,nan,nan,nan
1980-03-06 10:41:07,1,-3.9,2.8125,2.0,0.297647,1,1,104020.0,57812.1,1692,0.97402918,-1.2791815,83.672607,280.05933,3.06183,431.082,-19.4161,-1.0672,41.4397,30.8935
1980-03-06 10:42:28,-1,nan,nan,nan,nan,1,4,nan,nan,1692,0.97402793,-1.2792425,83.660645,280.05908,nan,nan,nan,nan,nan,nan